When you browse on this site, cookies collect data to enhance your experience and personalize the content and advertising you see.
Visit our Privacy Policy to learn more. By continuing to use the site, you agree to this use of cookies and data.
  • In Lithuania
  • List of Countries
  • For 7 days
  • Water Temperature
  • Satellite Maps
  • Weather Map
  • Weather Widgets
  • user-avatar
    Login

    Hourly Weather Belyanin

    Today, 22 January, Tuesday

    Time Temperature Precipitation Wind Pressure Humidity
    00:00 -5°C° 0.4 mm 6 mps 760 mmHg 87%
    01:00 -6°C° 0 mm 6 mps 761 mmHg 86%
    02:00 -6°C° 0 mm 6 mps 762 mmHg 84%
    03:00 -7°C° 0 mm 4 mps 762 mmHg 84%
    04:00 -7°C° 0 mm 4 mps 763 mmHg 84%
    05:00 -8°C° 0 mm 4 mps 763 mmHg 84%
    06:00 -9°C° 0 mm 4 mps 764 mmHg 84%
    07:00 -10°C° 0 mm 4 mps 764 mmHg 83%
    08:00 -10°C° 0 mm 4 mps 765 mmHg 83%
    09:00 -10°C° 0 mm 3 mps 766 mmHg 81%
    10:00 -9°C° 0 mm 3 mps 766 mmHg 79%
    11:00 -8°C° 0 mm 3 mps 766 mmHg 76%
    12:00 -7°C° 0 mm 3 mps 767 mmHg 73%
    13:00 -6°C° 0 mm 2 mps 767 mmHg 73%
    14:00 -6°C° 0 mm 2 mps 767 mmHg 72%
    15:00 -3°C° 0 mm 1 mps 767 mmHg 71%
    16:00 -6°C° 0 mm 2 mps 767 mmHg 74%
    17:00 -7°C° 0 mm 2 mps 767 mmHg 76%
    18:00 -7°C° 0 mm 2 mps 767 mmHg 78%
    19:00 -8°C° 0 mm 2 mps 767 mmHg 78%
    20:00 -8°C° 0 mm 2 mps 767 mmHg 78%
    21:00 -8°C° 0 mm 2 mps 767 mmHg 78%
    22:00 -9°C° 0 mm 2 mps 767 mmHg 78%
    23:00 -9°C° 0 mm 2 mps 767 mmHg 78%

    Tomorrow, 23 January, Wednesday

    Time Temperature Precipitation Wind Pressure Humidity
    00:00 -9°C° 0 mm 2 mps 768 mmHg 78%
    01:00 -10°C° 0 mm 3 mps 767 mmHg 79%
    02:00 -10°C° 0 mm 3 mps 767 mmHg 79%
    03:00 -10°C° 0 mm 3 mps 767 mmHg 80%
    04:00 -10°C° 0 mm 3 mps 767 mmHg 80%
    05:00 -11°C° 0 mm 4 mps 767 mmHg 80%
    06:00 -11°C° 0 mm 4 mps 767 mmHg 81%
    07:00 -11°C° 0 mm 4 mps 767 mmHg 81%
    08:00 -10°C° 0 mm 4 mps 766 mmHg 81%
    09:00 -11°C° 0 mm 5 mps 766 mmHg 81%
    10:00 -10°C° 0 mm 5 mps 766 mmHg 78%
    11:00 -7°C° 0 mm 5 mps 766 mmHg 74%
    12:00 -6°C° 0 mm 5 mps 766 mmHg 71%
    13:00 -5°C° 0 mm 6 mps 766 mmHg 70%
    14:00 -5°C° 0 mm 6 mps 765 mmHg 69%
    15:00 -4°C° 0 mm 6 mps 765 mmHg 68%
    16:00 -4°C° 0 mm 6 mps 764 mmHg 67%
    17:00 -4°C° 0 mm 6 mps 764 mmHg 66%
    18:00 -6°C° 0 mm 7 mps 764 mmHg 65%
    19:00 -4°C° 0 mm 7 mps 764 mmHg 65%
    20:00 -4°C° 0 mm 7 mps 763 mmHg 65%
    21:00 -4°C° 0 mm 7 mps 763 mmHg 66%
    22:00 -4°C° 0 mm 7 mps 763 mmHg 69%
    23:00 -4°C° 0 mm 7 mps 762 mmHg 72%

    Day after tomorrow, 24 January, Thursday

    Time Temperature Precipitation Wind Pressure Humidity
    00:00 -4°C° 0 mm 7 mps 762 mmHg 75%
    01:00 -4°C° 0 mm 7 mps 762 mmHg 78%
    02:00 -4°C° 0 mm 6 mps 762 mmHg 80%
    03:00 -4°C° 0 mm 6 mps 762 mmHg 82%
    04:00 -4°C° 0 mm 6 mps 761 mmHg 83%
    05:00 -3°C° 0 mm 6 mps 761 mmHg 84%
    06:00 -2°C° 0 mm 5 mps 761 mmHg 85%
    07:00 -2°C° 0 mm 5 mps 761 mmHg 85%
    08:00 -2°C° 0 mm 5 mps 761 mmHg 86%
    09:00 -2°C° 0 mm 5 mps 761 mmHg 86%
    10:00 -1°C° 0 mm 5 mps 761 mmHg 85%
    11:00 0°C° 0 mm 5 mps 761 mmHg 85%
    12:00 0°C° 0 mm 5 mps 760 mmHg 84%
    13:00 +1°C° 0 mm 5 mps 760 mmHg 84%
    14:00 +1°C° 0 mm 4 mps 759 mmHg 84%
    15:00 +1°C° 0 mm 4 mps 759 mmHg 85%
    16:00 +1°C° 0 mm 4 mps 759 mmHg 86%
    17:00 +1°C° 0 mm 3 mps 759 mmHg 88%
    18:00 0°C° 0 mm 3 mps 759 mmHg 89%
    19:00 0°C° 0 mm 3 mps 759 mmHg 90%
    20:00 0°C° 0 mm 3 mps 759 mmHg 91%
    21:00 0°C° 0 mm 3 mps 759 mmHg 91%
    22:00 0°C° 0 mm 3 mps 759 mmHg 92%
    23:00 0°C° 0 mm 3 mps 758 mmHg 92%

    25 January, Friday

    Time Temperature Precipitation Wind Pressure Humidity
    00:00 0°C° 0 mm 3 mps 758 mmHg 93%
    01:00 0°C° 0 mm 3 mps 758 mmHg 93%
    02:00 0°C° 0 mm 3 mps 758 mmHg 94%
    03:00 0°C° 0 mm 3 mps 758 mmHg 95%
    04:00 0°C° 0 mm 3 mps 758 mmHg 95%
    05:00 0°C° 0 mm 3 mps 758 mmHg 96%
    06:00 0°C° 0 mm 3 mps 758 mmHg 96%
    07:00 0°C° 0 mm 3 mps 758 mmHg 96%
    08:00 -1°C° 0 mm 4 mps 759 mmHg 95%
    09:00 -1°C° 0 mm 4 mps 759 mmHg 95%
    10:00 0°C° 0 mm 4 mps 759 mmHg 94%
    11:00 0°C° 0 mm 4 mps 759 mmHg 94%
    12:00 +1°C° 0 mm 4 mps 760 mmHg 93%
    13:00 +1°C° 0 mm 4 mps 760 mmHg 94%
    14:00 +1°C° 0 mm 4 mps 760 mmHg 94%
    15:00 +1°C° 0 mm 4 mps 760 mmHg 95%
    16:00 +1°C° 0 mm 3 mps 760 mmHg 95%
    17:00 +1°C° 0 mm 3 mps 760 mmHg 95%
    18:00 0°C° 0 mm 3 mps 760 mmHg 95%
    19:00 0°C° 0 mm 3 mps 760 mmHg 95%
    20:00 0°C° 0 mm 3 mps 760 mmHg 95%
    21:00 0°C° 0 mm 3 mps 761 mmHg 94%
    22:00 0°C° 0 mm 3 mps 760 mmHg 94%
    23:00 -1°C° 0 mm 4 mps 760 mmHg 94%

    26 January, Saturday

    Time Temperature Precipitation Wind Pressure Humidity
    00:00 -1°C° 0 mm 4 mps 760 mmHg 94%
    01:00 -1°C° 0 mm 4 mps 760 mmHg 94%
    02:00 -1°C° 0 mm 4 mps 760 mmHg 94%
    03:00 -1°C° 0 mm 4 mps 760 mmHg 94%
    04:00 -1°C° 0 mm 4 mps 759 mmHg 95%
    05:00 -1°C° 0 mm 4 mps 759 mmHg 95%
    06:00 -1°C° 0 mm 4 mps 759 mmHg 96%
    07:00 -1°C° 0 mm 4 mps 759 mmHg 96%
    08:00 -1°C° 0 mm 4 mps 759 mmHg 96%
    09:00 -1°C° 0 mm 4 mps 759 mmHg 96%
    10:00 0°C° 0 mm 4 mps 759 mmHg 95%
    11:00 0°C° 0 mm 4 mps 759 mmHg 93%
    12:00 +1°C° 0 mm 4 mps 759 mmHg 92%
    13:00 +1°C° 0 mm 4 mps 758 mmHg 92%
    14:00 +1°C° 0 mm 4 mps 758 mmHg 91%
    15:00 +1°C° 0 mm 4 mps 758 mmHg 91%
    16:00 +1°C° 0 mm 4 mps 758 mmHg 92%
    17:00 +1°C° 0 mm 3 mps 758 mmHg 93%
    18:00 +1°C° 0 mm 3 mps 758 mmHg 93%
    19:00 +1°C° 0 mm 3 mps 758 mmHg 93%
    20:00 -1°C° 0 mm 4 mps 757 mmHg 93%
    21:00 -1°C° 0 mm 4 mps 757 mmHg 93%
    22:00 -1°C° 0 mm 4 mps 757 mmHg 93%
    23:00 -2°C° 0 mm 4 mps 757 mmHg 93%

    27 January, Sunday

    Time Temperature Precipitation Wind Pressure Humidity
    00:00 -2°C° 0 mm 4 mps 757 mmHg 93%
    01:00 -2°C° 0.1 mm 4 mps 757 mmHg 93%
    02:00 -2°C° 0.1 mm 5 mps 757 mmHg 93%
    03:00 -4°C° 0.1 mm 5 mps 757 mmHg 92%
    04:00 -2°C° 0.1 mm 5 mps 757 mmHg 92%
    05:00 -2°C° 0.1 mm 5 mps 756 mmHg 92%
    06:00 -2°C° 0.1 mm 4 mps 756 mmHg 92%
    07:00 -2°C° 0.3 mm 4 mps 757 mmHg 92%
    08:00 -2°C° 0.3 mm 4 mps 757 mmHg 92%
    09:00 -2°C° 0.3 mm 5 mps 757 mmHg 92%
    10:00 -2°C° 0.7 mm 5 mps 757 mmHg 93%
    11:00 -2°C° 0.7 mm 5 mps 757 mmHg 93%
    12:00 -3°C° 0.7 mm 6 mps 757 mmHg 94%
    13:00 -3°C° 1.5 mm 6 mps 756 mmHg 94%
    14:00 -4°C° 1.5 mm 5 mps 756 mmHg 94%
    15:00 -4°C° 1.5 mm 5 mps 756 mmHg 95%
    16:00 -5°C° 1 mm 6 mps 756 mmHg 95%
    17:00 -7°C° 1 mm 7 mps 757 mmHg 95%
    18:00 -8°C° 1 mm 8 mps 757 mmHg 95%
    19:00 -10°C° 1.7 mm 8 mps 757 mmHg 95%
    20:00 -10°C° 1.7 mm 8 mps 757 mmHg 94%
    21:00 -11°C° 1.7 mm 8 mps 758 mmHg 94%
    22:00 -12°C° 0.5 mm 8 mps 758 mmHg 93%
    23:00 -12°C° 0.5 mm 8 mps 759 mmHg 92%
    Show more